Time,TemperatureF,DewpointF,PressureIn,WindDirection,WindDirectionDegrees,WindSpeedMPH,WindSpeedGustMPH,Humidity,HourlyPrecipIn,Conditions,Clouds,dailyrainin,SoftwareType,DateUTC
2013-06-06 00:01:00,55.2,46.0,30.13,West,270,0.0,0.0,71,0.00,,,0.00,meteobridge,2013-06-06 04:01:00,
2013-06-06 00:02:00,55.2,46.0,30.13,West,270,0.0,0.0,71,0.00,,,0.00,meteobridge,2013-06-06 04:02:00,
2013-06-06 00:07:00,54.0,44.8,30.13,West,270,0.0,0.0,71,0.00,,,0.00,meteobridge,2013-06-06 04:07:00,
2013-06-06 00:08:00,54.0,44.8,30.13,West,270,0.0,0.0,71,0.00,,,0.00,meteobridge,2013-06-06 04:08:00,
2013-06-06 00:14:00,53.6,44.4,30.13,West,270,0.0,0.0,71,0.00,,,0.00,meteobridge,2013-06-06 04:14:00,
2013-06-06 00:19:00,53.4,45.0,30.13,East,90,0.0,0.0,73,0.00,,,0.00,meteobridge,2013-06-06 04:19:00,
2013-06-06 00:25:00,53.1,44.6,30.13,East,90,0.0,0.0,73,0.00,,,0.00,meteobridge,2013-06-06 04:25:00,
2013-06-06 00:30:00,53.2,45.1,30.14,East,90,0.0,0.0,74,0.00,,,0.00,meteobridge,2013-06-06 04:30:00,
2013-06-06 00:36:00,54.3,45.9,30.13,East,90,0.0,0.0,73,0.00,,,0.00,meteobridge,2013-06-06 04:36:00,
2013-06-06 00:41:00,53.8,45.3,30.13,East,90,0.0,0.0,73,0.00,,,0.00,meteobridge,2013-06-06 04:41:00,
2013-06-06 00:47:00,53.1,45.0,30.13,West,270,0.0,0.0,74,0.00,,,0.00,meteobridge,2013-06-06 04:47:00,
2013-06-06 00:52:00,52.9,44.8,30.13,West,270,0.0,0.0,74,0.00,,,0.00,meteobridge,2013-06-06 04:52:00,
2013-06-06 00:58:00,52.0,43.9,30.12,West,270,0.0,0.0,74,0.00,,,0.00,meteobridge,2013-06-06 04:58:00,
2013-06-06 01:04:00,51.8,44.1,30.12,West,270,0.0,0.0,75,0.00,,,0.00,meteobridge,2013-06-06 05:04:00,
2013-06-06 01:09:00,52.0,44.6,30.12,West,270,0.0,0.0,76,0.00,,,0.00,meteobridge,2013-06-06 05:09:00,
2013-06-06 01:15:00,51.4,44.4,30.13,West,270,0.0,0.0,77,0.00,,,0.00,meteobridge,2013-06-06 05:15:00,
2013-06-06 01:21:00,51.4,44.4,30.12,West,270,0.0,0.0,77,0.00,,,0.00,meteobridge,2013-06-06 05:21:00,
2013-06-06 01:26:00,51.4,44.8,30.12,West,270,0.0,0.0,78,0.00,,,0.00,meteobridge,2013-06-06 05:26:00,
2013-06-06 01:32:00,51.3,45.0,30.12,West,270,0.0,0.0,79,0.00,,,0.00,meteobridge,2013-06-06 05:32:00,
2013-06-06 01:37:00,51.1,44.8,30.12,West,270,0.0,0.0,79,0.00,,,0.00,meteobridge,2013-06-06 05:37:00,
2013-06-06 01:43:00,51.1,44.8,30.12,West,270,0.0,0.0,79,0.00,,,0.00,meteobridge,2013-06-06 05:43:00,
2013-06-06 01:49:00,50.7,44.8,30.12,West,270,0.0,0.0,80,0.00,,,0.00,meteobridge,2013-06-06 05:49:00,
2013-06-06 01:54:00,50.7,45.1,30.12,West,270,0.0,0.0,81,0.00,,,0.00,meteobridge,2013-06-06 05:54:00,
2013-06-06 02:00:00,50.5,45.0,30.13,West,270,0.0,0.0,81,0.00,,,0.00,meteobridge,2013-06-06 06:00:00,
2013-06-06 02:06:00,50.5,45.0,30.13,West,270,0.0,0.0,81,0.00,,,0.00,meteobridge,2013-06-06 06:06:00,
2013-06-06 02:11:00,50.4,45.1,30.13,West,270,0.0,0.0,82,0.00,,,0.00,meteobridge,2013-06-06 06:11:00,
2013-06-06 02:17:00,50.4,45.1,30.13,North,0,0.0,0.0,82,0.00,,,0.00,meteobridge,2013-06-06 06:17:00,
2013-06-06 02:23:00,50.5,45.5,30.13,North,0,0.0,0.0,83,0.00,,,0.00,meteobridge,2013-06-06 06:23:00,
2013-06-06 02:28:00,50.7,45.7,30.13,North,0,0.0,0.0,83,0.00,,,0.00,meteobridge,2013-06-06 06:28:00,
2013-06-06 02:34:00,50.4,45.3,30.14,North,0,0.0,0.0,83,0.00,,,0.00,meteobridge,2013-06-06 06:34:00,
2013-06-06 02:39:00,50.2,45.1,30.14,North,0,0.0,0.0,83,0.00,,,0.00,meteobridge,2013-06-06 06:39:00,
2013-06-06 02:45:00,50.0,45.0,30.14,North,0,0.0,0.0,83,0.00,,,0.00,meteobridge,2013-06-06 06:45:00,
2013-06-06 02:51:00,49.6,45.3,30.14,North,0,0.0,0.0,85,0.00,,,0.00,meteobridge,2013-06-06 06:51:00,
2013-06-06 02:56:00,49.1,44.8,30.14,North,0,0.0,0.0,85,0.00,,,0.00,meteobridge,2013-06-06 06:56:00,
2013-06-06 03:02:00,49.3,45.0,30.14,North,0,0.0,0.0,85,0.00,,,0.00,meteobridge,2013-06-06 07:02:00,
2013-06-06 03:08:00,49.1,44.8,30.14,North,0,0.0,0.0,85,0.00,,,0.00,meteobridge,2013-06-06 07:08:00,
2013-06-06 03:13:00,48.7,44.4,30.14,North,0,0.0,0.0,85,0.00,,,0.00,meteobridge,2013-06-06 07:13:00,
2013-06-06 03:19:00,49.5,45.5,30.14,North,0,0.0,0.0,86,0.00,,,0.00,meteobridge,2013-06-06 07:19:00,
2013-06-06 03:25:00,49.3,45.3,30.14,East,90,0.0,0.0,86,0.00,,,0.00,meteobridge,2013-06-06 07:25:00,
2013-06-06 03:30:00,49.5,45.5,30.13,West,270,0.0,0.0,86,0.00,,,0.00,meteobridge,2013-06-06 07:30:00,
2013-06-06 03:36:00,49.6,45.7,30.13,North,0,0.0,0.0,86,0.00,,,0.00,meteobridge,2013-06-06 07:36:00,
2013-06-06 03:41:00,49.5,45.5,30.13,West,270,0.0,0.0,86,0.00,,,0.00,meteobridge,2013-06-06 07:41:00,
2013-06-06 03:46:00,49.3,45.3,30.13,West,270,0.0,0.0,86,0.00,,,0.00,meteobridge,2013-06-06 07:46:00,
2013-06-06 03:52:00,49.1,45.1,30.13,West,270,0.0,0.0,86,0.00,,,0.00,meteobridge,2013-06-06 07:52:00,
2013-06-06 03:58:00,49.1,45.1,30.12,West,270,0.0,0.0,86,0.00,,,0.00,meteobridge,2013-06-06 07:58:00,
2013-06-06 04:03:00,49.1,45.3,30.13,West,270,0.0,0.0,87,0.00,,,0.00,meteobridge,2013-06-06 08:03:00,
2013-06-06 04:09:00,48.4,44.8,30.12,North,0,0.0,0.0,87,0.00,,,0.00,meteobridge,2013-06-06 08:09:00,
2013-06-06 04:15:00,48.9,45.1,30.13,East,90,0.0,0.0,87,0.00,,,0.00,meteobridge,2013-06-06 08:15:00,
2013-06-06 04:20:00,48.7,45.0,30.13,North,0,0.0,0.0,87,0.00,,,0.00,meteobridge,2013-06-06 08:20:00,
2013-06-06 04:26:00,48.4,44.8,30.13,North,0,0.0,0.0,87,0.00,,,0.00,meteobridge,2013-06-06 08:26:00,
2013-06-06 04:32:00,48.7,45.0,30.14,North,0,0.0,0.0,87,0.00,,,0.00,meteobridge,2013-06-06 08:32:00,
2013-06-06 04:37:00,48.4,44.8,30.14,North,0,0.0,0.0,87,0.00,,,0.00,meteobridge,2013-06-06 08:37:00,
2013-06-06 04:43:00,48.4,44.8,30.14,East,90,0.0,0.0,87,0.00,,,0.00,meteobridge,2013-06-06 08:43:00,
2013-06-06 04:48:00,48.4,44.8,30.13,East,90,0.0,0.0,87,0.00,,,0.00,meteobridge,2013-06-06 08:48:00,
2013-06-06 04:54:00,48.0,45.0,30.13,East,90,0.0,0.0,89,0.00,,,0.00,meteobridge,2013-06-06 08:54:00,
2013-06-06 05:00:00,47.3,43.9,30.13,East,90,0.0,0.0,88,0.00,,,0.00,meteobridge,2013-06-06 09:00:00,
2013-06-06 05:05:00,48.0,44.6,30.13,South,180,0.0,0.0,88,0.00,,,0.00,meteobridge,2013-06-06 09:05:00,
2013-06-06 05:11:00,47.3,44.2,30.13,South,180,0.0,0.0,89,0.00,,,0.00,meteobridge,2013-06-06 09:11:00,
2013-06-06 05:17:00,47.3,44.2,30.13,South,180,0.0,0.0,89,0.00,,,0.00,meteobridge,2013-06-06 09:17:00,
2013-06-06 05:22:00,47.5,44.4,30.13,South,180,0.0,0.0,89,0.00,,,0.00,meteobridge,2013-06-06 09:22:00,
2013-06-06 05:28:00,47.1,44.1,30.13,South,180,0.0,0.0,89,0.00,,,0.00,meteobridge,2013-06-06 09:28:00,
2013-06-06 05:34:00,47.8,44.8,30.13,South,180,0.0,0.0,89,0.00,,,0.00,meteobridge,2013-06-06 09:34:00,
2013-06-06 05:39:00,48.2,44.8,30.13,South,180,0.0,0.0,88,0.00,,,0.00,meteobridge,2013-06-06 09:39:00,
2013-06-06 05:45:00,47.8,44.8,30.13,South,180,0.0,0.0,89,0.00,,,0.00,meteobridge,2013-06-06 09:45:00,
2013-06-06 05:51:00,47.5,44.4,30.13,South,180,0.0,0.0,89,0.00,,,0.00,meteobridge,2013-06-06 09:51:00,
2013-06-06 05:56:00,47.7,44.6,30.14,South,180,0.0,0.0,89,0.00,,,0.00,meteobridge,2013-06-06 09:56:00,
2013-06-06 06:02:00,48.0,45.0,30.14,South,180,0.0,0.0,89,0.00,,,0.00,meteobridge,2013-06-06 10:02:00,
2013-06-06 06:07:00,48.7,45.7,30.14,North,0,0.0,0.0,89,0.00,,,0.00,meteobridge,2013-06-06 10:07:00,
2013-06-06 06:13:00,49.3,46.2,30.14,North,0,0.0,0.0,89,0.00,,,0.00,meteobridge,2013-06-06 10:13:00,
2013-06-06 06:19:00,50.0,46.6,30.13,North,0,0.0,0.0,88,0.00,,,0.00,meteobridge,2013-06-06 10:19:00,
2013-06-06 06:24:00,50.4,46.9,30.14,North,0,0.0,0.0,88,0.00,,,0.00,meteobridge,2013-06-06 10:24:00,
2013-06-06 06:30:00,50.5,47.5,30.14,North,0,0.0,0.0,89,0.00,,,0.00,meteobridge,2013-06-06 10:30:00,
2013-06-06 06:36:00,50.5,47.1,30.14,North,0,0.0,0.0,88,0.00,,,0.00,meteobridge,2013-06-06 10:36:00,
2013-06-06 06:41:00,50.5,47.1,30.14,North,0,0.0,0.0,88,0.00,,,0.00,meteobridge,2013-06-06 10:41:00,
2013-06-06 06:47:00,50.7,47.3,30.14,North,0,0.0,0.0,88,0.00,,,0.00,meteobridge,2013-06-06 10:47:00,
2013-06-06 06:53:00,50.9,47.5,30.14,West,270,0.0,0.0,88,0.00,,,0.00,meteobridge,2013-06-06 10:53:00,
2013-06-06 06:58:00,51.1,47.3,30.15,North,0,0.0,0.0,87,0.00,,,0.00,meteobridge,2013-06-06 10:58:00,
2013-06-06 07:04:00,51.3,47.5,30.15,North,0,0.0,0.7,87,0.00,,,0.00,meteobridge,2013-06-06 11:04:00,
2013-06-06 07:09:00,51.8,47.7,30.14,East,90,1.6,1.6,86,0.00,,,0.00,meteobridge,2013-06-06 11:09:00,
2013-06-06 07:15:00,52.2,48.0,30.14,North,0,1.6,1.6,86,0.00,,,0.00,meteobridge,2013-06-06 11:15:00,
2013-06-06 07:21:00,51.8,47.7,30.14,NW,315,3.8,3.8,86,0.00,,,0.00,meteobridge,2013-06-06 11:21:00,
2013-06-06 07:26:00,52.0,47.8,30.14,SW,225,2.2,2.2,86,0.00,,,0.00,meteobridge,2013-06-06 11:26:00,
2013-06-06 07:31:00,52.3,48.2,30.14,West,270,2.2,2.2,86,0.00,,,0.00,meteobridge,2013-06-06 11:31:00,
2013-06-06 07:37:00,53.1,48.7,30.14,North,0,2.2,2.2,85,0.00,,,0.00,meteobridge,2013-06-06 11:37:00,
2013-06-06 07:43:00,53.4,49.1,30.14,West,270,2.2,2.2,85,0.00,,,0.00,meteobridge,2013-06-06 11:43:00,
2013-06-06 07:48:00,54.0,48.9,30.14,North,0,0.0,0.7,83,0.00,,,0.00,meteobridge,2013-06-06 11:48:00,
2013-06-06 07:54:00,54.3,48.9,30.14,North,0,0.0,1.6,82,0.00,,,0.00,meteobridge,2013-06-06 11:54:00,
2013-06-06 08:00:00,55.6,49.8,30.14,South,180,0.0,0.0,81,0.00,,,0.00,meteobridge,2013-06-06 12:00:00,
2013-06-06 08:05:00,56.7,50.5,30.14,West,270,0.0,0.0,80,0.00,,,0.00,meteobridge,2013-06-06 12:05:00,
2013-06-06 08:11:00,55.9,49.1,30.14,West,270,0.7,0.7,78,0.00,,,0.00,meteobridge,2013-06-06 12:11:00,
2013-06-06 08:16:00,55.9,49.1,30.14,North,0,0.0,1.6,78,0.00,,,0.00,meteobridge,2013-06-06 12:16:00,
2013-06-06 08:22:00,57.6,50.4,30.14,West,270,0.0,0.0,77,0.00,,,0.00,meteobridge,2013-06-06 12:22:00,
2013-06-06 08:28:00,58.5,50.9,30.14,West,270,1.6,1.6,76,0.00,,,0.00,meteobridge,2013-06-06 12:28:00,
2013-06-06 08:33:00,59.2,50.9,30.14,East,90,0.0,0.0,74,0.00,,,0.00,meteobridge,2013-06-06 12:33:00,
2013-06-06 08:39:00,59.9,51.3,30.14,South,180,1.6,1.6,73,0.00,,,0.00,meteobridge,2013-06-06 12:39:00,
2013-06-06 08:45:00,60.1,51.4,30.14,South,180,0.0,0.0,73,0.00,,,0.00,meteobridge,2013-06-06 12:45:00,
2013-06-06 08:50:00,60.1,50.7,30.14,North,0,0.0,1.6,71,0.00,,,0.00,meteobridge,2013-06-06 12:50:00,
2013-06-06 08:57:00,61.9,51.6,30.13,East,90,0.0,1.6,69,0.00,,,0.00,meteobridge,2013-06-06 12:57:00,
2013-06-06 09:02:00,62.4,51.8,30.13,West,270,0.0,0.7,68,0.00,,,0.00,meteobridge,2013-06-06 13:02:00,
2013-06-06 09:08:00,62.8,51.3,30.14,West,270,1.6,1.6,66,0.00,,,0.00,meteobridge,2013-06-06 13:08:00,
2013-06-06 09:14:00,61.2,50.2,30.13,North,0,2.2,2.2,67,0.00,,,0.00,meteobridge,2013-06-06 13:14:00,
2013-06-06 09:19:00,61.7,51.1,30.12,North,0,0.7,1.6,68,0.00,,,0.00,meteobridge,2013-06-06 13:19:00,
2013-06-06 09:25:00,63.7,52.2,30.12,North,0,0.0,1.6,66,0.00,,,0.00,meteobridge,2013-06-06 13:25:00,
2013-06-06 09:30:00,65.7,54.0,30.12,West,270,1.6,1.6,66,0.00,,,0.00,meteobridge,2013-06-06 13:30:00,
2013-06-06 09:36:00,63.5,51.4,30.12,West,270,2.2,3.8,65,0.00,,,0.00,meteobridge,2013-06-06 13:36:00,
2013-06-06 09:41:00,66.0,54.0,30.12,South,180,1.6,2.2,65,0.00,,,0.00,meteobridge,2013-06-06 13:41:00,
2013-06-06 09:47:00,68.4,54.3,30.12,East,90,0.7,0.7,61,0.00,,,0.00,meteobridge,2013-06-06 13:47:00,
2013-06-06 09:52:00,68.9,54.5,30.12,NE,45,0.0,0.7,60,0.00,,,0.00,meteobridge,2013-06-06 13:52:00,
2013-06-06 09:58:00,69.3,54.3,30.12,NE,45,1.6,3.1,59,0.00,,,0.00,meteobridge,2013-06-06 13:58:00,
2013-06-06 10:04:00,69.4,54.5,30.11,East,90,2.2,2.2,59,0.00,,,0.00,meteobridge,2013-06-06 14:04:00,
2013-06-06 10:09:00,68.2,52.9,30.11,South,180,3.1,4.5,58,0.00,,,0.00,meteobridge,2013-06-06 14:09:00,
2013-06-06 10:15:00,70.9,54.9,30.11,SE,135,0.7,0.7,57,0.00,,,0.00,meteobridge,2013-06-06 14:15:00,
2013-06-06 10:20:00,71.8,54.7,30.11,SW,225,0.7,6.0,55,0.00,,,0.00,meteobridge,2013-06-06 14:20:00,
2013-06-06 10:26:00,71.6,53.6,30.11,North,0,0.0,2.2,53,0.00,,,0.00,meteobridge,2013-06-06 14:26:00,
2013-06-06 10:32:00,73.2,55.6,30.11,North,0,1.6,1.6,54,0.00,,,0.00,meteobridge,2013-06-06 14:32:00,
2013-06-06 10:37:00,73.9,56.8,30.11,SE,135,9.2,9.2,55,0.00,,,0.00,meteobridge,2013-06-06 14:37:00,
2013-06-06 10:43:00,71.1,54.1,30.10,SW,225,3.1,4.5,55,0.00,,,0.00,meteobridge,2013-06-06 14:43:00,
2013-06-06 10:49:00,71.8,54.3,30.11,NE,45,3.1,4.5,54,0.00,,,0.00,meteobridge,2013-06-06 14:49:00,
2013-06-06 10:54:00,73.2,55.0,30.11,South,180,1.6,2.2,53,0.00,,,0.00,meteobridge,2013-06-06 14:54:00,
2013-06-06 11:00:00,73.6,55.4,30.10,NW,315,3.8,3.8,53,0.00,,,0.00,meteobridge,2013-06-06 15:00:00,
2013-06-06 11:06:00,72.9,54.7,30.10,SE,135,2.2,4.5,53,0.00,,,0.00,meteobridge,2013-06-06 15:06:00,
2013-06-06 11:11:00,71.1,53.1,30.10,South,180,2.2,6.9,53,0.00,,,0.00,meteobridge,2013-06-06 15:11:00,
2013-06-06 11:17:00,73.0,54.9,30.10,North,0,0.0,5.4,53,0.00,,,0.00,meteobridge,2013-06-06 15:17:00,
2013-06-06 11:23:00,74.5,56.7,30.10,East,90,2.2,2.2,54,0.00,,,0.00,meteobridge,2013-06-06 15:23:00,
2013-06-06 11:28:00,77.2,57.0,30.10,East,90,2.2,2.2,50,0.00,,,0.00,meteobridge,2013-06-06 15:28:00,
2013-06-06 11:34:00,74.5,55.8,30.10,East,90,4.5,4.5,52,0.00,,,0.00,meteobridge,2013-06-06 15:34:00,
2013-06-06 11:39:00,74.7,54.9,30.10,NE,45,1.6,8.3,50,0.00,,,0.00,meteobridge,2013-06-06 15:39:00,
2013-06-06 11:45:00,72.1,53.6,30.10,East,90,5.4,5.4,52,0.00,,,0.00,meteobridge,2013-06-06 15:45:00,
2013-06-06 11:51:00,72.7,54.0,30.10,East,90,0.0,5.4,52,0.00,,,0.00,meteobridge,2013-06-06 15:51:00,
2013-06-06 11:56:00,70.3,52.9,30.10,West,270,3.8,13.0,54,0.00,,,0.00,meteobridge,2013-06-06 15:56:00,
2013-06-06 12:02:00,73.9,55.8,30.10,SE,135,12.1,12.1,53,0.00,,,0.00,meteobridge,2013-06-06 16:02:00,
2013-06-06 12:08:00,72.7,54.0,30.09,South,180,6.0,6.9,52,0.00,,,0.00,meteobridge,2013-06-06 16:08:00,
2013-06-06 12:13:00,71.8,53.8,30.09,North,0,3.8,3.8,53,0.00,,,0.00,meteobridge,2013-06-06 16:13:00,
2013-06-06 12:19:00,72.7,54.5,30.09,South,180,1.6,1.6,53,0.00,,,0.00,meteobridge,2013-06-06 16:19:00,
2013-06-06 12:25:00,70.2,52.7,30.09,SE,135,4.5,9.8,54,0.00,,,0.00,meteobridge,2013-06-06 16:25:00,
2013-06-06 12:30:00,71.4,54.0,30.09,SE,135,4.5,12.1,54,0.00,,,0.00,meteobridge,2013-06-06 16:30:00,
2013-06-06 12:36:00,70.7,52.7,30.09,SW,225,3.1,9.2,53,0.00,,,0.00,meteobridge,2013-06-06 16:36:00,
2013-06-06 12:41:00,70.9,52.9,30.09,West,270,3.1,13.0,53,0.00,,,0.00,meteobridge,2013-06-06 16:41:00,
2013-06-06 12:47:00,70.3,52.9,30.09,SE,135,6.0,9.8,54,0.00,,,0.00,meteobridge,2013-06-06 16:47:00,
2013-06-06 12:53:00,71.1,53.1,30.09,South,180,8.3,8.3,53,0.00,,,0.00,meteobridge,2013-06-06 16:53:00,
2013-06-06 12:58:00,72.1,54.1,30.09,North,0,8.3,8.3,53,0.00,,,0.00,meteobridge,2013-06-06 16:58:00,
2013-06-06 13:04:00,71.4,54.0,30.08,South,180,3.8,3.8,54,0.00,,,0.00,meteobridge,2013-06-06 17:04:00,
2013-06-06 13:10:00,70.2,52.2,30.08,SE,135,11.4,11.4,53,0.00,,,0.00,meteobridge,2013-06-06 17:10:00,
2013-06-06 13:15:00,71.1,53.6,30.09,South,180,0.0,1.6,54,0.00,,,0.00,meteobridge,2013-06-06 17:15:00,
2013-06-06 13:21:00,70.0,52.0,30.08,South,180,8.3,9.8,53,0.00,,,0.00,meteobridge,2013-06-06 17:21:00,
2013-06-06 13:27:00,71.6,53.1,30.08,SE,135,13.0,13.0,52,0.00,,,0.00,meteobridge,2013-06-06 17:27:00,
2013-06-06 13:32:00,70.7,52.7,30.08,NE,45,1.6,1.6,53,0.00,,,0.00,meteobridge,2013-06-06 17:32:00,
2013-06-06 13:38:00,70.3,52.3,30.08,SE,135,3.1,5.4,53,0.00,,,0.00,meteobridge,2013-06-06 17:38:00,
2013-06-06 13:43:00,69.6,52.2,30.07,South,180,3.8,3.8,54,0.00,,,0.00,meteobridge,2013-06-06 17:43:00,
2013-06-06 13:49:00,69.6,52.2,30.07,NE,45,6.0,6.0,54,0.00,,,0.00,meteobridge,2013-06-06 17:49:00,
2013-06-06 13:55:00,70.0,52.5,30.07,South,180,3.8,5.4,54,0.00,,,0.00,meteobridge,2013-06-06 17:55:00,
2013-06-06 14:00:00,69.4,52.5,30.07,West,270,0.7,3.1,55,0.00,,,0.00,meteobridge,2013-06-06 18:00:00,
2013-06-06 14:06:00,70.2,52.7,30.07,SW,225,3.8,4.5,54,0.00,,,0.00,meteobridge,2013-06-06 18:06:00,
2013-06-06 14:12:00,68.9,52.0,30.08,East,90,1.6,3.1,55,0.00,,,0.00,meteobridge,2013-06-06 18:12:00,
2013-06-06 14:17:00,69.3,52.3,30.07,SE,135,11.4,11.4,55,0.00,,,0.00,meteobridge,2013-06-06 18:17:00,
2013-06-06 14:22:00,69.4,52.5,30.07,SE,135,4.5,4.5,55,0.00,,,0.00,meteobridge,2013-06-06 18:22:00,
2013-06-06 14:28:00,69.1,52.2,30.08,East,90,1.6,3.8,55,0.00,,,0.00,meteobridge,2013-06-06 18:28:00,
2013-06-06 14:34:00,69.1,52.2,30.08,South,180,6.9,8.3,55,0.00,,,0.00,meteobridge,2013-06-06 18:34:00,
2013-06-06 14:39:00,68.9,52.0,30.08,SE,135,7.6,7.6,55,0.00,,,0.00,meteobridge,2013-06-06 18:39:00,
2013-06-06 14:45:00,69.6,52.7,30.08,South,180,0.7,1.6,55,0.00,,,0.00,meteobridge,2013-06-06 18:45:00,
2013-06-06 14:50:00,70.7,52.7,30.08,SE,135,4.5,5.4,53,0.00,,,0.00,meteobridge,2013-06-06 18:50:00,
2013-06-06 14:56:00,70.3,52.9,30.08,SW,225,1.6,1.6,54,0.00,,,0.00,meteobridge,2013-06-06 18:56:00,
2013-06-06 15:01:00,68.7,52.0,30.08,SE,135,6.9,6.9,55,0.00,,,0.00,meteobridge,2013-06-06 19:01:00,
2013-06-06 15:07:00,70.3,53.4,30.08,East,90,2.2,2.2,55,0.00,,,0.00,meteobridge,2013-06-06 19:07:00,
2013-06-06 15:12:00,70.5,53.1,30.08,East,90,2.2,5.4,54,0.00,,,0.00,meteobridge,2013-06-06 19:12:00,
2013-06-06 15:17:00,71.2,53.2,30.07,South,180,12.1,12.1,53,0.00,,,0.00,meteobridge,2013-06-06 19:17:00,
2013-06-06 15:23:00,70.0,52.5,30.07,South,180,3.8,3.8,54,0.00,,,0.00,meteobridge,2013-06-06 19:23:00,
2013-06-06 15:29:00,69.1,52.2,30.07,SE,135,5.4,5.4,55,0.00,,,0.00,meteobridge,2013-06-06 19:29:00,
2013-06-06 15:34:00,68.5,51.8,30.07,South,180,10.7,10.7,55,0.00,,,0.00,meteobridge,2013-06-06 19:34:00,
2013-06-06 15:36:00,68.5,51.3,30.07,South,180,8.3,10.7,54,0.00,,,0.00,meteobridge,2013-06-06 19:36:00,
2013-06-06 15:42:00,68.7,51.4,30.07,North,0,1.6,6.9,54,0.00,,,0.00,meteobridge,2013-06-06 19:42:00,
2013-06-06 15:48:00,69.3,52.0,30.07,East,90,5.4,5.4,54,0.00,,,0.00,meteobridge,2013-06-06 19:48:00,
2013-06-06 15:53:00,69.6,51.8,30.07,North,0,0.7,0.7,53,0.00,,,0.00,meteobridge,2013-06-06 19:53:00,
2013-06-06 15:59:00,68.5,50.7,30.06,SW,225,2.2,7.6,53,0.00,,,0.00,meteobridge,2013-06-06 19:59:00,
2013-06-06 16:04:00,68.4,50.5,30.06,South,180,3.1,5.4,53,0.00,,,0.00,meteobridge,2013-06-06 20:04:00,
2013-06-06 16:10:00,69.1,51.3,30.06,NE,45,2.2,2.2,53,0.00,,,0.00,meteobridge,2013-06-06 20:10:00,
2013-06-06 16:16:00,68.4,50.5,30.06,NW,315,3.8,4.5,53,0.00,,,0.00,meteobridge,2013-06-06 20:16:00,
2013-06-06 16:21:00,68.4,50.5,30.05,North,0,5.4,5.4,53,0.00,,,0.00,meteobridge,2013-06-06 20:21:00,
2013-06-06 16:27:00,68.2,50.4,30.05,South,180,3.1,3.1,53,0.00,,,0.00,meteobridge,2013-06-06 20:27:00,
2013-06-06 16:33:00,68.4,50.5,30.06,North,0,4.5,4.5,53,0.00,,,0.00,meteobridge,2013-06-06 20:33:00,
2013-06-06 16:38:00,68.2,50.4,30.06,East,90,6.9,7.6,53,0.00,,,0.00,meteobridge,2013-06-06 20:38:00,
2013-06-06 16:44:00,67.5,50.2,30.06,South,180,9.8,9.8,54,0.00,,,0.00,meteobridge,2013-06-06 20:44:00,
2013-06-06 16:50:00,66.9,50.2,30.06,South,180,3.1,7.6,55,0.00,,,0.00,meteobridge,2013-06-06 20:50:00,
2013-06-06 16:55:00,67.3,50.5,30.06,West,270,0.7,3.1,55,0.00,,,0.00,meteobridge,2013-06-06 20:55:00,
2013-06-06 17:01:00,67.3,50.5,30.06,North,0,3.1,3.1,55,0.00,,,0.00,meteobridge,2013-06-06 21:01:00,
2013-06-06 17:06:00,67.1,50.4,30.06,East,90,0.0,1.6,55,0.00,,,0.00,meteobridge,2013-06-06 21:06:00,
2013-06-06 17:11:00,67.6,50.9,30.06,SE,135,5.4,5.4,55,0.00,,,0.00,meteobridge,2013-06-06 21:11:00,
2013-06-06 17:17:00,68.2,51.4,30.06,North,0,0.0,0.7,55,0.00,,,0.00,meteobridge,2013-06-06 21:17:00,
2013-06-06 17:23:00,67.6,50.4,30.06,West,270,0.7,3.1,54,0.00,,,0.00,meteobridge,2013-06-06 21:23:00,
2013-06-06 17:28:00,66.9,50.2,30.06,North,0,1.6,1.6,55,0.00,,,0.00,meteobridge,2013-06-06 21:28:00,
2013-06-06 17:34:00,66.4,49.6,30.06,North,0,2.2,3.8,55,0.00,,,0.00,meteobridge,2013-06-06 21:34:00,
2013-06-06 17:40:00,66.6,49.8,30.06,SE,135,0.0,1.6,55,0.00,,,0.00,meteobridge,2013-06-06 21:40:00,
2013-06-06 17:45:00,66.4,49.6,30.06,West,270,2.2,3.8,55,0.00,,,0.00,meteobridge,2013-06-06 21:45:00,
2013-06-06 17:51:00,68.4,51.1,30.07,North,0,0.0,3.1,54,0.00,,,0.00,meteobridge,2013-06-06 21:51:00,
2013-06-06 17:57:00,68.2,50.9,30.06,East,90,0.0,4.5,54,0.00,,,0.00,meteobridge,2013-06-06 21:57:00,
2013-06-06 18:02:00,67.8,51.1,30.06,South,180,2.2,2.2,55,0.00,,,0.00,meteobridge,2013-06-06 22:02:00,
2013-06-06 18:08:00,66.0,50.4,30.06,North,0,0.0,0.0,57,0.00,,,0.00,meteobridge,2013-06-06 22:08:00,
2013-06-06 18:13:00,64.6,49.5,30.06,South,180,2.2,2.2,58,0.00,,,0.00,meteobridge,2013-06-06 22:13:00,
2013-06-06 18:19:00,64.4,50.2,30.06,East,90,0.0,0.0,60,0.00,,,0.00,meteobridge,2013-06-06 22:19:00,
2013-06-06 18:24:00,63.9,50.2,30.06,East,90,0.0,1.6,61,0.00,,,0.00,meteobridge,2013-06-06 22:24:00,
2013-06-06 18:30:00,63.1,49.8,30.06,South,180,0.0,0.0,62,0.00,,,0.00,meteobridge,2013-06-06 22:30:00,
2013-06-06 18:36:00,62.1,49.8,30.06,East,90,0.7,1.6,64,0.00,,,0.00,meteobridge,2013-06-06 22:36:00,
2013-06-06 18:41:00,63.0,50.5,30.06,West,270,0.7,0.7,64,0.00,,,0.00,meteobridge,2013-06-06 22:41:00,
2013-06-06 18:46:00,61.9,50.0,30.06,East,90,0.0,2.2,65,0.01,,,0.01,meteobridge,2013-06-06 22:46:00,
2013-06-06 18:51:00,61.3,49.8,30.06,South,180,0.0,2.2,66,0.01,,,0.01,meteobridge,2013-06-06 22:51:00,
2013-06-06 18:57:00,61.0,50.4,30.06,NE,45,1.6,1.6,68,0.01,,,0.01,meteobridge,2013-06-06 22:57:00,
2013-06-06 19:02:00,60.4,50.5,30.06,South,180,0.0,0.7,70,0.01,,,0.01,meteobridge,2013-06-06 23:02:00,
2013-06-06 19:08:00,60.1,51.1,30.06,NE,45,0.0,0.0,72,0.01,,,0.01,meteobridge,2013-06-06 23:08:00,
2013-06-06 19:14:00,60.3,51.6,30.06,East,90,0.0,1.6,73,0.02,,,0.02,meteobridge,2013-06-06 23:14:00,
2013-06-06 19:19:00,59.5,50.9,30.06,West,270,0.0,0.0,73,0.02,,,0.02,meteobridge,2013-06-06 23:19:00,
2013-06-06 19:25:00,59.5,51.3,30.06,East,90,0.0,0.0,74,0.02,,,0.02,meteobridge,2013-06-06 23:25:00,
2013-06-06 19:31:00,59.4,51.1,30.06,East,90,0.0,0.0,74,0.04,,,0.04,meteobridge,2013-06-06 23:31:00,
2013-06-06 19:36:00,59.0,51.1,30.06,North,0,0.0,0.0,75,0.04,,,0.04,meteobridge,2013-06-06 23:36:00,
2013-06-06 19:41:00,58.8,51.6,30.06,East,90,0.0,1.6,77,0.05,,,0.05,meteobridge,2013-06-06 23:41:00,
2013-06-06 19:47:00,58.6,51.8,30.06,East,90,0.0,0.0,78,0.04,,,0.05,meteobridge,2013-06-06 23:47:00,
2013-06-06 19:52:00,58.6,51.8,30.05,South,180,1.6,1.6,78,0.04,,,0.05,meteobridge,2013-06-06 23:52:00,
2013-06-06 19:58:00,58.6,51.8,30.06,South,180,0.7,0.7,78,0.05,,,0.06,meteobridge,2013-06-06 23:58:00,
2013-06-06 20:04:00,59.2,52.0,30.05,SW,225,0.0,0.0,77,0.05,,,0.06,meteobridge,2013-06-07 00:04:00,
2013-06-06 20:09:00,60.3,52.7,30.05,SW,225,0.0,0.0,76,0.04,,,0.06,meteobridge,2013-06-07 00:09:00,
2013-06-06 20:15:00,59.4,51.8,30.05,South,180,0.0,0.0,76,0.04,,,0.06,meteobridge,2013-06-07 00:15:00,
2013-06-06 20:21:00,59.4,51.8,30.05,South,180,0.0,0.0,76,0.04,,,0.06,meteobridge,2013-06-07 00:21:00,
2013-06-06 20:26:00,59.2,51.6,30.05,South,180,0.0,0.0,76,0.02,,,0.06,meteobridge,2013-06-07 00:26:00,
2013-06-06 20:32:00,58.8,52.0,30.04,South,180,0.0,0.0,78,0.02,,,0.06,meteobridge,2013-06-07 00:32:00,
2013-06-06 20:37:00,58.6,52.2,30.04,South,180,0.0,0.0,79,0.02,,,0.06,meteobridge,2013-06-07 00:37:00,
2013-06-06 20:43:00,58.5,52.3,30.04,West,270,0.0,0.0,80,0.01,,,0.06,meteobridge,2013-06-07 00:43:00,
2013-06-06 20:49:00,58.3,52.2,30.04,West,270,0.0,0.0,80,0.02,,,0.07,meteobridge,2013-06-07 00:49:00,
2013-06-06 20:54:00,59.0,52.5,30.04,West,270,0.0,0.0,79,0.02,,,0.07,meteobridge,2013-06-07 00:54:00,
2013-06-06 21:00:00,58.6,52.2,30.04,South,180,0.0,0.7,79,0.01,,,0.07,meteobridge,2013-06-07 01:00:00,
2013-06-06 21:06:00,58.3,52.2,30.04,SW,225,0.0,0.0,80,0.01,,,0.07,meteobridge,2013-06-07 01:06:00,
2013-06-06 21:11:00,59.0,52.5,30.04,South,180,0.0,0.0,79,0.01,,,0.07,meteobridge,2013-06-07 01:11:00,
2013-06-06 21:17:00,59.5,53.1,30.04,West,270,0.0,0.0,79,0.01,,,0.07,meteobridge,2013-06-07 01:17:00,
2013-06-06 21:23:00,58.6,52.5,30.05,West,270,0.0,0.0,80,0.01,,,0.07,meteobridge,2013-06-07 01:23:00,
2013-06-06 21:28:00,58.5,52.7,30.05,West,270,0.0,0.0,81,0.01,,,0.07,meteobridge,2013-06-07 01:28:00,
2013-06-06 21:34:00,58.6,53.2,30.04,West,270,0.0,0.0,82,0.01,,,0.07,meteobridge,2013-06-07 01:34:00,
2013-06-06 21:40:00,58.6,53.2,30.05,West,270,0.0,0.0,82,0.01,,,0.07,meteobridge,2013-06-07 01:40:00,
2013-06-06 21:45:00,58.6,53.4,30.05,West,270,0.0,0.0,83,0.00,,,0.07,meteobridge,2013-06-07 01:45:00,
2013-06-06 21:51:00,58.5,53.2,30.05,North,0,0.0,0.0,83,0.00,,,0.07,meteobridge,2013-06-07 01:51:00,
2013-06-06 21:56:00,59.7,54.1,30.05,West,270,0.0,0.0,82,0.00,,,0.07,meteobridge,2013-06-07 01:56:00,
2013-06-06 22:01:00,59.0,53.6,30.05,South,180,0.0,0.0,82,0.00,,,0.07,meteobridge,2013-06-07 02:01:00,
2013-06-06 22:07:00,59.0,53.6,30.05,South,180,0.0,0.0,82,0.00,,,0.07,meteobridge,2013-06-07 02:07:00,
2013-06-06 22:13:00,58.8,53.6,30.05,South,180,0.0,0.0,83,0.01,,,0.08,meteobridge,2013-06-07 02:13:00,
2013-06-06 22:18:00,58.6,53.4,30.05,South,180,0.0,0.0,83,0.01,,,0.08,meteobridge,2013-06-07 02:18:00,
2013-06-06 22:24:00,58.5,53.6,30.04,South,180,0.0,3.1,84,0.02,,,0.09,meteobridge,2013-06-07 02:24:00,
2013-06-06 22:30:00,58.5,53.6,30.04,South,180,0.0,0.0,84,0.02,,,0.09,meteobridge,2013-06-07 02:30:00,
2013-06-06 22:35:00,58.6,53.8,30.05,South,180,0.0,0.0,84,0.04,,,0.11,meteobridge,2013-06-07 02:35:00,
2013-06-06 22:42:00,58.6,53.8,30.04,South,180,0.7,0.7,84,0.04,,,0.11,meteobridge,2013-06-07 02:42:00,
2013-06-06 22:47:00,58.5,53.6,30.04,East,90,0.0,2.2,84,0.05,,,0.12,meteobridge,2013-06-07 02:47:00,
2013-06-06 22:53:00,58.5,53.6,30.04,East,90,0.0,0.0,84,0.05,,,0.12,meteobridge,2013-06-07 02:53:00,
2013-06-06 22:58:00,58.5,53.6,30.03,East,90,0.0,0.0,84,0.06,,,0.13,meteobridge,2013-06-07 02:58:00,
2013-06-06 23:04:00,58.3,53.4,30.03,East,90,0.0,1.6,84,0.06,,,0.13,meteobridge,2013-06-07 03:04:00,
2013-06-06 23:10:00,58.3,53.4,30.03,West,270,0.0,0.0,84,0.06,,,0.13,meteobridge,2013-06-07 03:10:00,
2013-06-06 23:15:00,58.3,53.8,30.03,SE,135,0.0,0.0,85,0.05,,,0.13,meteobridge,2013-06-07 03:15:00,
2013-06-06 23:21:00,58.3,53.8,30.03,South,180,0.0,2.2,85,0.06,,,0.14,meteobridge,2013-06-07 03:21:00,
2013-06-06 23:27:00,58.1,53.6,30.02,West,270,0.0,0.0,85,0.05,,,0.14,meteobridge,2013-06-07 03:27:00,
2013-06-06 23:32:00,58.1,53.6,30.03,East,90,0.0,0.0,85,0.05,,,0.14,meteobridge,2013-06-07 03:32:00,
2013-06-06 23:38:00,58.1,53.6,30.03,South,180,0.0,2.2,85,0.05,,,0.15,meteobridge,2013-06-07 03:38:00,
2013-06-06 23:44:00,58.3,53.4,30.03,East,90,0.0,2.2,84,0.04,,,0.15,meteobridge,2013-06-07 03:44:00,
2013-06-06 23:49:00,58.1,53.2,30.03,South,180,0.0,0.0,84,0.05,,,0.17,meteobridge,2013-06-07 03:49:00,
2013-06-06 23:55:00,58.1,53.2,30.02,East,90,0.0,0.0,84,0.04,,,0.17,meteobridge,2013-06-07 03:55:00,